Hourly Data Report for July 22, 2021

SALLUIT
QUEBEC
Current Station Operator: ECCC - MSC

62°10'46.005" N
75°40'13.006" W
228.00 m
7117800
71641
MFX

Download Data

Hourly Data (July 2021)
Hourly Data Report for July 22, 2021
TIME
LST
Temp Definition
°C
Dew Point Definition
°C
Rel Hum Definition
%
Precip. Amount Definition
mm

Wind Dir Definition
10's deg

Wind Spd Definition
km/h
Visibility Definition
km
Stn Press Definition
kPa
Hmdx Definition


Wind Chill Definition


Weather Definition


00:00 4.3 2.7 89 0.0 24 7   98.45     LegendNANA
01:00 4.4 2.4 87 0.0 25 15   98.47     LegendNANA
02:00 4.7 2.6 86 0.0 25 21   98.51     LegendNANA
03:00 4.8 2.3 84 0.0 24 13   98.52     LegendNANA
04:00 5.9 3.1 82 0.0 25 18   98.51     LegendNANA
05:00 6.7 3.4 79 0.0 25 16   98.54     LegendNANA
06:00 7.1 4.3 82 0.0 25 19   98.57     LegendNANA
07:00 7.9 5.2 83 0.0 24 18   98.60     LegendNANA
08:00 8.9 6.4 84 0.0 24 21   98.59     LegendNANA
09:00 10.2 7.1 81 0.0 23 23   98.58     LegendNANA
10:00 10.4 6.8 78 0.0 26 32   98.56     LegendNANA
11:00 10.4 7.6 83 0.0 24 27   98.58     LegendNANA
12:00 11.4 8.4 82 0.2 24 25   98.57     LegendNANA
13:00 12.5 8.9 79 0.2 25 35   98.54     LegendNANA
14:00 13.4 9.0 75 0.0 25 38   98.54     LegendNANA
15:00 13.9 9.4 74 0.0 25 41   98.54     LegendNANA
16:00 14.3 9.4 73 0.0 26 34   98.55     LegendNANA
17:00 13.9 9.5 75 0.0 25 33   98.57     LegendNANA
18:00 13.1 9.2 77 0.0 25 39   98.53     LegendNANA
19:00 12.7 8.5 76 0.0 24 29   98.57     LegendNANA
20:00 11.3 7.8 79 0.0 25 33   98.56     LegendNANA
21:00 10.9 7.5 79 0.0 24 34   98.56     LegendNANA
22:00 10.1 6.9 81 0.0 24 34   98.56     LegendNANA
23:00 9.7 6.8 83 0.0 24 23   98.62     LegendNANA

Notes on Data Quality.

Legend

  • E = Estimated
  • M = Missing
  • NA = Not Available*
  • [empty] = Indicates an unobserved value
Date modified: